GW1732 Weather Reports


time (UTC)temp
C
wind
direction
speed
KPH
gust
KPH
rain 1hr
cm
rain 24hr
cm
rain mn
cm
humidity
%
barometer
mb
20260505184256 30 338 0.0 0.0 0.00 0.00 0.00 60 1002.4
20260505183740 31 23 0.0 0.0 0.00 0.00 0.00 61 1002.4
20260505182720 31 23 0.0 0.0 0.00 0.00 0.00 60 1002.4
20260505182209 31 23 0.0 0.0 0.00 0.00 0.00 60 1002.4
20260505181700 31 68 0.0 0.0 0.00 0.00 0.00 61 1002.3
20260505181149 31 0 0.0 0.0 0.00 0.00 0.00 60 1002.4
20260505180639 31 0 0.0 0.0 0.00 0.00 0.00 62 1002.5
20260505180130 31 23 0.0 0.0 0.00 0.00 0.00 62 1002.5
20260505175619 31 23 0.0 0.0 0.00 0.00 0.00 60 1002.5
20260505175109 31 23 0.0 0.0 0.00 0.00 0.00 63 1002.7
20260505174559 31 23 0.0 0.0 0.00 0.00 0.00 62 1002.6
20260505173029 30 315 0.0 0.0 0.00 0.00 0.00 62 1002.6
20260505172518 30 293 0.0 0.0 0.00 0.00 0.00 61 1002.7
20260505172008 30 23 0.0 0.0 0.00 0.00 0.00 61 1002.9
20260505171457 31 338 0.0 0.0 0.00 0.00 0.00 63 1002.9
20260505170948 30 23 0.0 0.0 0.00 0.00 0.00 63 1003.1
20260505170438 30 0 0.0 0.0 0.00 0.00 0.00 63 1003.3
20260505165928 30 23 0.0 0.0 0.00 0.00 0.00 62 1003.1
20260505165418 30 338 0.0 0.0 0.00 0.00 0.00 64 1003.3
20260505164907 30 23 0.0 0.0 0.00 0.00 0.00 64 1003.4
20260505164358 30 0 0.0 0.0 0.00 0.00 0.00 66 1003.5
20260505163847 30 23 0.0 0.0 0.00 0.00 0.00 64 1003.4
20260505163338 30 0 0.0 0.0 0.00 0.00 0.00 65 1003.4
20260505162827 30 0 0.0 0.0 0.00 0.00 0.00 65 1003.7
20260505162317 30 45 0.0 0.0 0.00 0.00 0.00 65 1003.6
20260505161807 30 23 0.0 0.0 0.00 0.00 0.00 65 1003.6
20260505161257 30 0 0.0 0.0 0.00 0.00 0.00 66 1003.6
20260505160746 30 23 0.0 0.0 0.00 0.00 0.00 65 1003.8
20260505160236 30 0 0.0 0.0 0.00 0.00 0.00 66 1004.0
20260505153136 29 0 0.0 0.0 0.00 0.00 0.00 67 1004.3
20260505152626 29 23 0.0 0.0 0.00 0.00 0.00 66 1004.3
20260505152115 29 0 0.0 0.0 0.00 0.00 0.00 67 1004.4
20260505151605 29 23 0.0 0.0 0.00 0.00 0.00 69 1004.6
20260505151056 29 23 0.0 0.0 0.00 0.00 0.00 69 1004.5
20260505150546 28 23 0.0 0.0 0.00 0.00 0.00 69 1004.5
20260505140344 27 23 0.0 0.0 0.00 0.00 0.00 72 1004.8
20260505130143 26 0 0.0 0.0 0.00 0.03 0.00 76 1004.7
20260505124612 25 23 0.0 0.0 0.00 0.18 0.00 79 1004.3
20260505124102 25 23 0.0 0.0 0.00 0.18 0.00 79 1004.5
20260505123552 25 23 0.0 0.0 0.00 0.18 0.00 80 1004.2
20260505123042 25 23 0.0 0.0 0.00 0.18 0.00 80 1004.1
20260505122531 25 23 0.0 0.0 0.00 0.18 0.00 80 1004.2
20260505122022 25 23 0.0 0.0 0.00 0.18 0.00 81 1004.3
20260505121512 25 23 0.0 0.0 0.00 0.18 0.00 81 1004.0
20260505121001 24 338 0.0 0.0 0.00 0.18 0.00 82 1004.1
20260505120452 24 338 0.0 0.0 0.00 0.18 0.00 83 1004.0
20260505115941 24 315 0.0 0.0 0.00 0.18 0.00 83 1004.0
20260505115431 24 270 0.0 0.0 0.00 0.18 0.00 81 1003.9
20260505114920 25 338 0.0 0.0 0.00 0.18 0.00 80 1004.0
20260505114410 24 338 0.0 0.0 0.00 0.18 0.00 80 1004.1
20260505113901 23 338 0.0 0.0 0.00 0.18 0.00 84 1003.9
20260505112841 22 338 0.0 0.0 0.00 0.18 0.00 88 1003.8
20260505112331 22 338 0.0 0.0 0.00 0.18 0.00 88 1003.9
20260505111820 21 338 0.0 0.0 0.00 0.18 0.00 89 1003.8
20260505111310 20 338 0.0 0.0 0.00 0.18 0.00 93 1003.8
20260505110800 20 338 0.0 0.0 0.00 0.18 0.00 94 1003.7
20260505110250 19 338 0.0 0.0 0.00 0.18 0.00 96 1003.5
20260505102129 18 338 0.0 0.0 0.00 0.18 0.00 98 1003.3
20260505101619 18 338 0.0 0.0 0.00 0.18 0.00 98 1003.1
20260505101108 18 338 0.0 0.0 0.00 0.18 0.00 98 1003.0
20260505100559 18 338 0.0 0.0 0.00 0.18 0.00 98 1003.0
20260505100049 18 338 0.0 0.0 0.00 0.18 0.00 97 1002.9
20260505095538 18 338 0.0 0.0 0.00 0.18 0.00 98 1002.8
20260505095024 18 338 0.0 0.0 0.00 0.18 0.00 98 1002.7
20260505094518 18 338 0.0 0.0 0.00 0.18 0.00 98 1002.8
20260505094008 18 338 0.0 0.0 0.00 0.18 0.00 98 1002.7
20260505093458 18 338 0.0 0.0 0.00 0.18 0.00 98 1002.5
20260505092437 18 338 0.0 0.0 0.00 0.18 0.00 97 1002.6
20260505091417 19 338 0.0 0.0 0.00 0.18 0.00 97 1002.5
20260505090357 19 338 0.0 0.0 0.00 0.18 0.00 97 1002.2
20260505085847 19 338 0.0 0.0 0.00 0.18 0.00 97 1002.3
20260505085337 19 338 0.0 0.0 0.00 0.18 0.00 97 1002.2
20260505084826 19 338 0.0 0.0 0.00 0.18 0.00 97 1002.2
20260505084317 19 338 0.0 0.0 0.00 0.18 0.00 97 1002.1
20260505083807 19 338 0.0 0.0 0.00 0.18 0.00 96 1002.1
20260505083256 19 338 0.0 0.0 0.00 0.18 0.00 97 1002.0
20260505082746 19 338 0.0 0.0 0.00 0.18 0.00 97 1002.1
20260505081726 19 338 0.0 0.0 0.00 0.18 0.00 96 1002.1
20260505081216 19 338 0.0 0.0 0.00 0.18 0.00 97 1002.0
20260505080706 20 338 0.0 0.0 0.00 0.18 0.00 97 1002.0
20260505080156 20 338 0.0 0.0 0.00 0.18 0.00 97 1002.0
20260505075646 19 338 0.0 0.0 0.00 0.18 0.00 98 1001.9
20260505074626 19 338 0.0 0.0 0.00 0.18 0.00 98 1001.9
20260505074116 19 338 0.0 0.0 0.00 0.18 0.00 98 1001.9
20260505073605 19 338 0.0 0.0 0.00 0.18 0.00 97 1001.8
20260505073055 19 338 0.0 0.0 0.00 0.18 0.00 97 1001.8
20260505072545 19 338 0.0 0.0 0.00 0.18 0.00 96 1001.9
20260505072035 20 338 0.0 0.0 0.00 0.18 0.00 96 1002.1
20260505071525 20 338 0.0 0.0 0.00 0.20 0.00 96 1002.0
20260505071014 20 338 0.0 0.0 0.00 0.38 0.00 96 1001.9
20260505070505 20 338 0.0 0.0 0.00 0.38 0.00 95 1002.0
20260505065954 20 338 0.0 0.0 0.00 0.38 0.00 96 1002.0
20260505065444 20 338 0.0 0.0 0.00 0.38 0.00 95 1002.0
20260505064934 20 338 0.0 0.0 0.00 0.38 0.00 95 1002.2
20260505064424 20 338 0.0 0.0 0.00 0.38 0.00 95 1002.0
20260505063913 20 338 0.0 0.0 0.00 0.38 0.00 95 1002.0
20260505063404 20 338 0.0 0.0 0.00 0.38 0.00 95 1002.1
20260505062854 20 338 0.0 0.0 0.00 0.38 0.00 95 1002.3
20260505062343 20 338 0.0 0.0 0.00 0.38 0.00 95 1001.9
20260505061834 20 338 0.0 0.0 0.00 0.38 0.00 95 1002.0
20260505061324 21 338 0.0 0.0 0.00 0.38 0.00 94 1002.1
20260505060813 21 338 0.0 0.0 0.00 0.38 0.00 95 1002.2
20260505060304 21 338 0.0 0.0 0.00 0.38 0.00 95 1002.1
20260505055753 21 338 0.0 0.0 0.00 0.38 0.00 94 1002.1
20260505055243 21 338 0.0 0.0 0.00 0.38 0.00 94 1002.0
20260505054733 21 338 0.0 0.0 0.00 0.38 0.00 94 1002.0
20260505054222 21 338 0.0 0.0 0.00 0.38 0.00 93 1002.2
20260505053712 21 338 0.0 0.0 0.00 0.38 0.00 93 1002.0
20260505052652 21 338 0.0 0.0 0.00 0.38 0.00 92 1002.1
20260505052142 21 338 0.0 0.0 0.00 0.38 0.00 92 1002.1
20260505051632 21 338 0.0 0.0 0.00 0.38 0.00 92 1002.2
20260505051122 21 0 0.0 0.0 0.00 0.38 0.00 92 1002.1
20260505050611 21 315 0.0 0.0 0.00 0.38 0.00 92 1002.1
20260505040921 22 23 0.0 0.0 0.00 0.38 0.00 91 1002.2
20260505040411 22 0 0.0 0.0 0.00 0.38 0.00 92 1002.3
20260505035901 22 0 0.0 0.0 0.00 0.38 0.00 91 1002.2
20260505035350 22 338 0.0 0.0 0.00 0.38 0.00 91 1002.3
20260505034841 22 0 0.0 0.0 0.00 0.38 0.00 92 1002.4
20260505034330 22 0 0.0 0.0 0.00 0.38 0.00 92 1002.3
20260505033820 22 0 0.0 0.0 0.00 0.38 0.00 92 1002.1
20260505033310 22 0 0.0 0.0 0.00 0.38 0.00 92 1002.3
20260505032759 22 23 0.0 0.0 0.00 0.38 0.00 93 1002.4
20260505032249 22 0 0.0 0.0 0.00 0.38 0.00 93 1002.2
20260505031740 22 0 0.0 0.0 0.00 0.38 0.00 93 1002.3
20260505030719 22 45 0.0 0.0 0.00 0.38 0.00 94 1002.3
20260505025659 21 0 0.0 0.0 0.00 0.38 0.38 95 1002.3
20260505025148 21 0 0.0 0.0 0.00 0.38 0.38 95 1002.1
20260505024129 21 23 0.0 0.0 0.00 0.38 0.38 96 1002.3
20260505023618 21 0 0.0 0.0 0.00 0.38 0.38 95 1002.2
20260505023108 21 0 0.0 0.0 0.00 0.38 0.38 95 1002.3
20260505022048 21 338 0.0 0.0 0.00 0.38 0.38 97 1002.2
20260505021539 21 23 0.0 0.0 0.00 0.38 0.38 98 1001.9
20260505021028 21 338 0.0 0.0 0.00 0.38 0.38 99 1002.2
20260505020519 21 180 0.0 0.0 0.00 0.38 0.38 99 1002.0
20260505020022 21 180 0.0 0.0 0.00 0.38 0.38 99 1002.0
20260505014948 21 180 0.0 0.0 0.00 0.38 0.38 99 1002.0
20260505014438 21 180 0.0 0.0 0.00 0.38 0.38 99 1002.0
20260505013927 20 180 0.0 0.0 0.00 0.38 0.38 99 1002.0
20260505013417 20 180 0.0 0.0 0.00 0.38 0.38 99 1001.8
20260505012907 19 180 0.0 0.0 0.00 0.38 0.38 99 1001.9
20260505012357 19 180 0.0 0.0 0.00 0.38 0.38 99 1001.8
20260505011847 19 180 0.0 0.0 0.00 0.38 0.38 99 1002.0
20260505010827 20 180 0.0 0.0 0.00 0.38 0.38 99 1001.9
20260505010316 20 180 0.0 0.0 0.00 0.38 0.38 99 1001.8
20260505005256 20 180 0.0 0.0 0.00 0.38 0.38 99 1001.8
20260505004236 20 180 0.0 0.0 0.00 0.38 0.38 99 1001.7
20260505003726 20 180 0.0 0.0 0.00 0.38 0.38 99 1001.8
20260505003216 20 180 0.0 0.0 0.00 0.38 0.38 99 1001.6
20260505002156 20 180 0.0 0.0 0.00 0.38 0.38 99 1001.6
20260505001646 20 180 0.0 0.0 0.00 0.38 0.38 99 1001.7
20260505000625 20 180 0.0 0.0 0.00 0.38 0.38 99 1001.7
20260505000116 20 180 0.0 0.0 0.00 0.38 0.38 99 1001.5
20260504235605 21 180 0.0 0.0 0.00 0.38 0.38 99 1001.6
20260504235055 21 180 0.0 0.0 0.00 0.38 0.38 99 1001.4
20260504234545 21 180 0.0 0.0 0.00 0.38 0.38 99 1001.5
20260504234035 21 180 0.0 0.0 0.00 0.38 0.38 99 1001.5
20260504233525 21 180 0.0 0.0 0.00 0.38 0.38 99 1001.3
20260504233015 21 180 0.0 0.0 0.00 0.38 0.38 99 1001.3
20260504232504 21 180 0.0 0.0 0.00 0.38 0.38 98 1001.3
20260504231954 21 180 0.0 0.0 0.00 0.38 0.38 98 1001.2
20260504231444 21 180 0.0 0.0 0.00 0.38 0.38 98 1001.1
20260504230934 21 180 0.0 0.0 0.00 0.38 0.38 98 1001.1
20260504230424 21 180 0.0 0.0 0.00 0.38 0.38 98 1001.2
20260504225913 21 180 0.0 0.0 0.00 0.38 0.38 98 1001.2
20260504225404 21 180 0.0 0.0 0.00 0.38 0.38 97 1001.0
20260504224853 22 180 0.0 0.0 0.00 0.38 0.38 97 1000.9
20260504224344 22 180 0.0 0.0 0.00 0.38 0.38 97 1001.0
20260504222813 22 180 0.0 0.0 0.00 0.38 0.38 96 1000.9
20260504222304 22 180 0.0 0.0 0.00 0.38 0.38 96 1000.8
20260504221753 23 180 0.0 0.0 0.00 0.38 0.38 95 1000.9
20260504221243 23 180 0.0 0.0 0.00 0.38 0.38 95 1000.7
20260504215202 23 180 0.0 0.0 0.00 0.38 0.38 95 1000.8
20260504214652 23 180 0.0 0.0 0.00 0.38 0.38 95 1000.7
20260504213632 23 180 0.0 0.0 0.00 0.38 0.38 94 1000.7
20260504213122 23 180 0.0 0.0 0.00 0.38 0.38 94 1000.7
20260504212101 24 180 0.0 0.0 0.00 0.38 0.38 92 1000.7
20260504211042 24 180 0.0 0.0 0.00 0.38 0.38 91 1000.5
20260504210538 24 180 0.0 0.0 0.00 0.38 0.38 91 1000.7
20260504210021 24 203 0.0 0.0 0.00 0.38 0.38 92 1000.6
20260504205511 25 203 0.0 0.0 0.00 0.38 0.38 91 1000.7
20260504205000 25 203 0.0 0.0 0.00 0.38 0.38 90 1000.4
20260504204451 25 203 0.0 0.0 0.00 0.38 0.38 89 1000.5
20260504203941 25 203 0.0 0.0 0.00 0.38 0.38 89 1000.5
20260504203431 26 23 0.0 0.0 0.00 0.38 0.38 86 1000.3
20260504202921 26 23 0.0 0.0 0.00 0.38 0.38 86 1000.4
20260504202410 26 23 0.0 0.0 0.00 0.38 0.38 85 1000.3
20260504201350 26 23 0.0 0.0 0.00 0.38 0.38 85 1000.1
20260504200840 27 23 0.0 0.0 0.00 0.38 0.38 83 1000.3
20260504200330 27 23 0.0 0.0 0.00 0.38 0.38 81 1000.4
20260504195820 27 23 0.0 0.0 0.00 0.38 0.38 80 1000.2
20260504195309 27 23 0.0 0.0 0.00 0.38 0.38 79 1000.2
20260504194800 27 23 0.0 0.0 0.00 0.38 0.38 78 1000.2
20260504194250 27 23 0.0 0.0 0.00 0.38 0.38 78 1000.2
20260504193739 27 23 0.0 0.0 0.00 0.38 0.38 79 1000.3
20260504193229 27 23 0.0 0.0 0.00 0.38 0.38 80 1000.2
20260504192719 27 23 0.0 0.0 0.00 0.38 0.38 80 1000.0
20260504192209 27 23 0.0 0.0 0.00 0.38 0.38 80 1000.3
20260504191149 27 0 0.0 0.0 0.00 0.38 0.38 79 1000.3
20260504190639 27 23 0.0 0.0 0.00 0.38 0.38 78 1000.2
20260504190128 27 23 0.0 0.0 0.00 0.38 0.38 78 1000.2
20260504185618 27 23 0.0 0.0 0.00 0.38 0.38 80 1000.3
20260504185108 26 0 0.0 0.0 0.00 0.38 0.38 81 1000.2